Regional Weather Roundup
Issued by NWS

Home | Current Version | Previous Version | Text Only | Print | Product List | Glossary On
Versions: 1 2 3 4 5 6 7 8 9 10 11 12 13 14 15 16 17 18 19 20 21 22 23 24 25 26 27 28 29 30 31 32 33 34 35 36 37 38 39 40 41 42 43 44 45 46 47 48 49 50
000
ASUS44 KMEG 040710
RWRTN
TENNESSEE HOURLY STATE WEATHER ROUNDUP
NATIONAL WEATHER SERVICE MEMPHIS TN
100 AM CST WED MAR 04 2015

TNZ002-004-019-021-049-052-054-088>092-040800-
WEST TENNESSEE

CITY           SKY/WX    TMP DP  RH WIND       PRES   REMARKS
MEMPHIS INTL   CLOUDY    63  61  94 VRB3      29.87S FOG
NWS MEMPHIS      N/A     62 N/A N/A MISG        N/A
JACKSON        CLOUDY    63  60  90 W7        29.86S
DYERSBURG      CLOUDY    50  39  66 N7        29.90R
UNION CITY     CLOUDY    46  46 100 N6        29.88R
PARIS          CLOUDY    50  50 100 N3        29.88R
LEXINGTON      CLOUDY    64  63  94 S12       29.86F
SAVANNAH       CLOUDY    64  64 100 S8        29.89F
$$

TNZ008-025-027-028-033-062-065-066-040800-
NORTH MIDDLE TENNESSEE

CITY           SKY/WX    TMP DP  RH WIND       PRES   REMARKS
NASHVILLE      CLOUDY    65  62  90 S9        29.88S
CLARKSVILLE    LGT RAIN  52  51  97 N6        29.86S
SMYRNA         CLOUDY    65  62  90 S7        29.90R
COOKEVILLE     CLOUDY    63  61  94 SW13      29.90R
CROSSVILLE     CLOUDY    60  57  89 SW9G22    29.93S
$$

TNZ061-075-076-078-094-096-097-040800-
SOUTH MIDDLE TENNESSEE

CITY           SKY/WX    TMP DP  RH WIND       PRES   REMARKS
FAYETTEVILLE   CLOUDY    61  61 100 SW10        N/A
TULLAHOMA      CLOUDY    61  61 100 SW10      29.94S
WINCHESTER     CLOUDY    63  61  94 S9        29.95F
MCMINNVILLE    CLOUDY    63  63 100 S13       29.92S
COLUMBIA       CLOUDY   N/A N/A N/A SW12      29.88S
SHELBYVILLE    CLOUDY    64  64 100 S14       29.92S
$$

TNZ017-018-042-046-047-040800-
NORTHEAST TENNESSEE

CITY           SKY/WX    TMP DP  RH WIND       PRES   REMARKS
TRI CITIES     FOG       45  45 100 CALM      29.95S VSB 1
ELIZABETHTON   CLOUDY    46  46 100 CALM      29.94S
$$

TNZ012-013-036-069-073-074-040800-
CENTRAL EAST TENNESSEE

CITY           SKY/WX    TMP DP  RH WIND       PRES   REMARKS
KNOXVILLE      CLOUDY    56  56 100 SW12      29.93F
OAK RIDGE      LGT RAIN  53  52  96 W5        29.96S FOG
GATLINBURG     CLOUDY    46  46 100 CALM      29.94S VSB 0
MORRISTOWN     CLOUDY    46  46 100 CALM      29.94F VSB 0
$$

TNZ083-085-099-040800-
SOUTHEAST TENNESSEE

CITY           SKY/WX    TMP DP  RH WIND       PRES   REMARKS
CHATTANOOGA    LGT RAIN  56  55  97 S6        29.99F FOG
$$

SKY/WX REPORTED AS FAIR MEANS FEW OR NO CLOUDS BELOW
12 THOUSAND FEET.



USA.gov is the U.S. government's official web portal to all federal, state and local government web resources and services.